Regional Weather Roundup
Issued by NWS

Home | Current Version | Previous Version | Graphics & Text | Print | Product List | Glossary On
Versions: 1 2 3 4 5 6 7 8 9 10 11 12 13 14 15 16 17 18 19 20 21 22 23 24 25 26 27 28 29 30 31 32 33 34 35 36 37 38 39 40 41 42 43 44 45 46 47 48 49 50
000
ASUS43 KFSD 010202
RWRSD

WEATHER ROUNDUP FOR SOUTH DAKOTA
NATIONAL WEATHER SERVICE SIOUX FALLS SD
900 PM CDT TUE SEP 30 2014

NOTE: "FAIR" INDICATES FEW OR NO CLOUDS BELOW 12,000 FEET WITH NO
SIGNIFICANT WEATHER AND/OR OBSTRUCTIONS TO VISIBILITY.


SDZ001>005-009-010-012>017-010300-
NORTHWEST AND NORTH CENTRAL SOUTH DAKOTA

CITY           SKY/WX    TMP DP  RH WIND       PRES   REMARKS
BUFFALO          N/A     54  52  93 W18       29.51R
FAITH            N/A     56  51  84 W21       29.55R
MOBRIDGE       CLOUDY    62  54  74 SW16      29.46R
$$

SDZ012>016-024>037-041>051-057-063-072>074-010300-
SOUTHWEST AND SOUTH CENTRAL SOUTH DAKOTA

CITY           SKY/WX    TMP DP  RH WIND       PRES   REMARKS
RAPID CTY ARPT PTCLDY    57  43  59 SW3       29.66R
PIERRE         CLEAR     61  50  67 SW12      29.57R
CUSTER         MOCLDY    50  40  68 W9        29.74R
ELLSWORTH AFB  PTCLDY    55  45  68 NW5       29.66R
PHILIP         PTCLDY    58  48  69 CALM      29.63R
PINE RIDGE     MOCLDY    56  49  77 CALM      29.69R
WINNER         FAIR      62  46  55 S7        29.65R
$$

SDZ004>011-016>023-039-040-010300-
NORTHEAST SOUTH DAKOTA

CITY           SKY/WX    TMP DP  RH WIND       PRES   REMARKS
ABERDEEN       CLOUDY    66  52  60 S10       29.55R
WATERTOWN      CLOUDY    62  59  90 S21G31    29.65S
SISSETON         N/A     58  55  90 S16G24    29.63F
$$

SDZ017-020-022-023-036>040-048>070-010300-
SOUTHEAST SOUTH DAKOTA

CITY           SKY/WX    TMP DP  RH WIND       PRES   REMARKS
SIOUX FALLS    CLOUDY    65  61  87 SE18G26   29.73R
HURON          PTCLDY    67  55  65 S9        29.62R
CHAMBERLAIN    CLEAR     56  50  80 S6        29.64R
MITCHELL       MOCLDY    67  60  78 S20       29.67R
YANKTON        MOCLDY    64  61  88 SE13      29.72R
$$

ABBREVIATIONS USED IN REMARKS
   TC - TEMPERATURE IN CELSIUS
  WCI - WIND CHILL INDEX
   HX - HEAT INDEX
  VSB - VISIBILITY




USA.gov is the U.S. government's official web portal to all federal, state and local government web resources and services.